STARLINK-1025 (44730 NORAD) Tracking and Keplerian Element Data

This shows tracking and keplerian element data for the satellite.

Feedback or suggestion? Click here.




ElementValue
Catalog44730
NameSTARLINK-1025
Epoch Orbit1066
Epoch Day18.25002315
Epoch Year2020
RAAN194.2119
Inclination53.0074
Eccentricity0.0006194
Argument of Perigee352.5384
Mean Anonmoly34.8995
Mean Motion15.73141668
Decay Rate0.00234923
L11 44730U 19074T 20018.25002315 .00234923 00000-0 16344-2 0 9991
L22 44730 53.0074 194.2119 0006194 352.5384 34.8995 15.73141668 10669

Live tracking and technical data element details for STARLINK-1025 (NORAD 44730). STARLINK-1025 can be tracked NOW for your location showing map with azimuth and elevation plus other details from your city location.

Track the satellite on the map from your city or location and see movement details for azimuth, elevation, latitude, longitude, range, height, and movement on the map or in text.







IsCatalogInMostPopularTable: catalog: 44730, numindb: 8
Update: records affected: 1



GetName: 44730 STARLINK-1025

Hit Count: updated at: Mon, 20 Jan 2020 02:59:32 GMT